• In Uzbekistan
  • List of Countries
  • For 7 days
  • Water Temperature
  • Satellite Maps
  • Weather Map
  • Weather Widgets
  • user-avatar
    Login

    Hourly Weather Idzhewan

    Today, 6 December, Tuesday

    Time Temperature Precipitation Wind Pressure Humidity
    00:00 +1°C° 0.8 mm 1 mps 696 mmHg 94%
    01:00 0°C° 0.7 mm 1 mps 696 mmHg 93%
    02:00 0°C° 0.7 mm 1 mps 696 mmHg 93%
    03:00 -2°C° 0 mm 2 mps 696 mmHg 91%
    04:00 -3°C° 0.5 mm 2 mps 696 mmHg 89%
    05:00 -3°C° 0.5 mm 2 mps 697 mmHg 88%
    06:00 -2°C° 0.5 mm 1 mps 697 mmHg 86%
    07:00 -2°C° 0.1 mm 1 mps 698 mmHg 84%
    08:00 -1°C° 0.1 mm 1 mps 698 mmHg 82%
    09:00 -1°C° 0.1 mm 1 mps 699 mmHg 79%
    10:00 -1°C° 0 mm 1 mps 699 mmHg 76%
    11:00 0°C° 0 mm 1 mps 699 mmHg 72%
    12:00 -1°C° 0 mm 2 mps 699 mmHg 69%
    13:00 +1°C° 0 mm 1 mps 699 mmHg 70%
    14:00 +1°C° 0 mm 1 mps 699 mmHg 71%
    15:00 +1°C° 0 mm 1 mps 699 mmHg 72%
    16:00 -1°C° 0 mm 1 mps 699 mmHg 76%
    17:00 -2°C° 0 mm 1 mps 699 mmHg 80%
    18:00 -4°C° 0 mm 1 mps 699 mmHg 83%
    19:00 -4°C° 0 mm 1 mps 699 mmHg 82%
    20:00 -4°C° 0 mm 1 mps 699 mmHg 81%
    21:00 -4°C° 0 mm 1 mps 699 mmHg 80%
    22:00 -6°C° 0 mm 2 mps 699 mmHg 80%
    23:00 -6°C° 0 mm 2 mps 699 mmHg 80%

    Tomorrow, 7 December, Wednesday

    Time Temperature Precipitation Wind Pressure Humidity
    00:00 -6°C° 0 mm 2 mps 699 mmHg 80%
    01:00 -6°C° 0 mm 2 mps 699 mmHg 79%
    02:00 -6°C° 0 mm 2 mps 698 mmHg 79%
    03:00 -6°C° 0 mm 2 mps 698 mmHg 79%
    04:00 -6°C° 0 mm 2 mps 698 mmHg 79%
    05:00 -6°C° 0 mm 2 mps 698 mmHg 78%
    06:00 -6°C° 0 mm 2 mps 697 mmHg 78%
    07:00 -5°C° 0 mm 2 mps 697 mmHg 75%
    08:00 -3°C° 0 mm 2 mps 697 mmHg 73%
    09:00 -2°C° 0 mm 2 mps 697 mmHg 70%
    10:00 -1°C° 0 mm 2 mps 697 mmHg 67%
    11:00 +2°C° 0 mm 2 mps 696 mmHg 64%
    12:00 +3°C° 0 mm 2 mps 696 mmHg 60%
    13:00 +4°C° 0 mm 1 mps 695 mmHg 63%
    14:00 +4°C° 0 mm 1 mps 695 mmHg 65%
    15:00 +3°C° 0 mm 1 mps 695 mmHg 68%
    16:00 +1°C° 0 mm 1 mps 695 mmHg 70%
    17:00 -1°C° 0 mm 1 mps 695 mmHg 72%
    18:00 -3°C° 0 mm 1 mps 695 mmHg 75%
    19:00 -3°C° 0 mm 1 mps 695 mmHg 74%
    20:00 -4°C° 0 mm 2 mps 695 mmHg 73%
    21:00 -4°C° 0 mm 2 mps 695 mmHg 73%
    22:00 -4°C° 0 mm 2 mps 695 mmHg 73%
    23:00 -4°C° 0 mm 2 mps 695 mmHg 74%

    Day after tomorrow, 8 December, Thursday

    Time Temperature Precipitation Wind Pressure Humidity
    00:00 -4°C° 0 mm 2 mps 695 mmHg 75%
    01:00 -4°C° 0 mm 2 mps 696 mmHg 76%
    02:00 -4°C° 0 mm 2 mps 696 mmHg 76%
    03:00 -4°C° 0 mm 2 mps 696 mmHg 77%
    04:00 -2°C° 0 mm 1 mps 697 mmHg 79%
    05:00 -2°C° 0 mm 1 mps 697 mmHg 80%
    06:00 -3°C° 0 mm 1 mps 697 mmHg 81%
    07:00 -2°C° 0 mm 1 mps 698 mmHg 78%
    08:00 -3°C° 0 mm 2 mps 699 mmHg 75%
    09:00 -3°C° 0 mm 2 mps 700 mmHg 72%
    10:00 -2°C° 0 mm 2 mps 700 mmHg 69%
    11:00 -2°C° 0 mm 2 mps 700 mmHg 66%
    12:00 -1°C° 0 mm 2 mps 700 mmHg 63%
    13:00 -2°C° 0 mm 2 mps 700 mmHg 64%
    14:00 -2°C° 0 mm 2 mps 700 mmHg 66%
    15:00 -2°C° 0 mm 2 mps 700 mmHg 67%
    16:00 -4°C° 0 mm 2 mps 700 mmHg 72%
    17:00 -3°C° 0 mm 1 mps 700 mmHg 77%
    18:00 -6°C° 0 mm 1 mps 700 mmHg 82%
    19:00 -6°C° 0 mm 1 mps 700 mmHg 82%
    20:00 -6°C° 0 mm 1 mps 700 mmHg 83%
    21:00 -6°C° 0 mm 1 mps 701 mmHg 83%
    22:00 -7°C° 0 mm 1 mps 701 mmHg 83%
    23:00 -7°C° 0 mm 1 mps 700 mmHg 83%

    9 December, Friday

    Time Temperature Precipitation Wind Pressure Humidity
    00:00 -7°C° 0 mm 1 mps 700 mmHg 83%
    01:00 -7°C° 0 mm 1 mps 700 mmHg 83%
    02:00 -8°C° 0 mm 1 mps 700 mmHg 83%
    03:00 -8°C° 0 mm 1 mps 700 mmHg 82%
    04:00 -8°C° 0 mm 1 mps 699 mmHg 81%
    05:00 -8°C° 0 mm 1 mps 699 mmHg 80%
    06:00 -8°C° 0 mm 1 mps 699 mmHg 79%
    07:00 -6°C° 0 mm 1 mps 699 mmHg 75%
    08:00 -4°C° 0 mm 1 mps 699 mmHg 72%
    09:00 -3°C° 0 mm 1 mps 699 mmHg 68%
    10:00 -1°C° 0 mm 1 mps 699 mmHg 64%
    11:00 0°C° 0 mm 1 mps 698 mmHg 60%
    12:00 +2°C° 0 mm 1 mps 698 mmHg 56%
    13:00 +2°C° 0 mm 1 mps 697 mmHg 58%
    14:00 +2°C° 0 mm 1 mps 697 mmHg 61%
    15:00 +2°C° 0 mm 1 mps 697 mmHg 63%
    16:00 0°C° 0 mm 1 mps 696 mmHg 67%
    17:00 -2°C° 0 mm 1 mps 696 mmHg 71%
    18:00 -3°C° 0 mm 1 mps 696 mmHg 75%
    19:00 -3°C° 0 mm 1 mps 696 mmHg 74%
    20:00 -3°C° 0 mm 1 mps 696 mmHg 73%
    21:00 -4°C° 0 mm 2 mps 696 mmHg 72%
    22:00 -4°C° 0 mm 2 mps 696 mmHg 72%
    23:00 -4°C° 0 mm 2 mps 696 mmHg 72%

    10 December, Saturday

    Time Temperature Precipitation Wind Pressure Humidity
    00:00 -4°C° 0 mm 2 mps 695 mmHg 73%
    01:00 -4°C° 0 mm 2 mps 695 mmHg 73%
    02:00 -4°C° 0 mm 2 mps 695 mmHg 73%
    03:00 -4°C° 0 mm 2 mps 694 mmHg 73%
    04:00 -4°C° 0 mm 2 mps 694 mmHg 74%
    05:00 -4°C° 0 mm 2 mps 693 mmHg 75%
    06:00 -4°C° 0 mm 2 mps 693 mmHg 75%
    07:00 -3°C° 0 mm 2 mps 693 mmHg 73%
    08:00 -1°C° 0 mm 2 mps 692 mmHg 70%
    09:00 +1°C° 0 mm 2 mps 692 mmHg 68%
    10:00 +2°C° 0 mm 2 mps 692 mmHg 66%
    11:00 +3°C° 0 mm 2 mps 691 mmHg 63%
    12:00 +4°C° 0 mm 2 mps 691 mmHg 61%
    13:00 +4°C° 0 mm 2 mps 691 mmHg 64%
    14:00 +5°C° 0 mm 1 mps 691 mmHg 66%
    15:00 +5°C° 0 mm 1 mps 690 mmHg 69%
    16:00 +3°C° 0 mm 2 mps 691 mmHg 72%
    17:00 +2°C° 0 mm 2 mps 691 mmHg 75%
    18:00 -1°C° 0 mm 2 mps 691 mmHg 79%
    19:00 -1°C° 0 mm 2 mps 692 mmHg 79%
    20:00 -1°C° 0 mm 2 mps 692 mmHg 79%
    21:00 -1°C° 0 mm 2 mps 692 mmHg 80%
    22:00 -1°C° 0 mm 2 mps 692 mmHg 81%
    23:00 -1°C° 0 mm 2 mps 693 mmHg 82%

    11 December, Sunday

    Time Temperature Precipitation Wind Pressure Humidity
    00:00 -1°C° 0 mm 2 mps 693 mmHg 82%
    01:00 -1°C° 0 mm 2 mps 693 mmHg 83%
    02:00 -1°C° 0 mm 2 mps 693 mmHg 83%
    03:00 -1°C° 0 mm 2 mps 693 mmHg 83%
    04:00 -1°C° 0 mm 2 mps 693 mmHg 83%
    05:00 -1°C° 0 mm 2 mps 693 mmHg 83%
    06:00 -1°C° 0 mm 2 mps 694 mmHg 83%
    07:00 -1°C° 0 mm 2 mps 694 mmHg 80%
    08:00 +2°C° 0 mm 1 mps 694 mmHg 77%
    09:00 +3°C° 0 mm 1 mps 694 mmHg 74%
    10:00 +4°C° 0 mm 1 mps 694 mmHg 71%
    11:00 +6°C° 0 mm 1 mps 694 mmHg 68%
    12:00 +7°C° 0 mm 1 mps 693 mmHg 65%
    13:00 +6°C° 0 mm 1 mps 693 mmHg 68%
    14:00 +6°C° 0 mm 1 mps 693 mmHg 70%
    15:00 +6°C° 0 mm 1 mps 692 mmHg 73%
    16:00 +5°C° 0 mm 1 mps 693 mmHg 76%
    17:00 +3°C° 0 mm 1 mps 693 mmHg 80%
    18:00 +2°C° 0 mm 1 mps 693 mmHg 83%
    19:00 +1°C° 0 mm 2 mps 693 mmHg 82%
    20:00 +1°C° 0 mm 2 mps 693 mmHg 82%
    21:00 +1°C° 0 mm 2 mps 693 mmHg 81%
    22:00 +1°C° 0 mm 2 mps 693 mmHg 81%
    23:00 +1°C° 0 mm 2 mps 693 mmHg 81%
    Show more